Location: *
(48.6833°S, 164.4667°W)
Time: 11:47:00
(UTC+00:00)

Daily predictions for brighter satellites

Satellite Brightness Start Highest point End
(mag) Time Altitude Azimuth Time Altitude Azimuth Time Altitude Azimuth
Cosmos 2369 Rocket 4.3 14:30:01 21° SE 14:30:01 21° SE 14:34:12 10° E
SJ 16-02 4.3 14:41:19 15° ESE 14:41:19 15° ESE 14:42:41 10° E
Cosmos 2237 Rocket 4.1 14:43:48 24° SE 14:43:48 24° SE 14:46:02 10° SSE
Cosmos 1943 Rocket 3.6 14:51:02 34° E 14:51:02 34° E 14:54:41 10° NE
USA 234 3.7 14:47:23 10° ESE 14:53:22 55° ENE 14:53:22 55° ENE
NOSS 3-1 (C) 4.0 14:59:42 84° E 14:59:42 84° E 15:07:13 10° SE
SL-16 R/B 3.2 15:04:29 43° ENE 15:04:31 43° ENE 15:09:56 10° SE
USA 229 DEB 4.1 15:08:33 62° NNE 15:09:29 67° NE 15:16:46 10° SE
USA 229 4.1 15:08:36 61° NNE 15:09:35 67° NE 15:16:51 10° SE
Cosmos 2219 Rocket 4.4 15:13:21 15° S 15:13:21 15° S 15:14:36 10° SSE
NOSS 3-1 (A) 4.1 15:29:00 50° NNW 15:31:38 84° NE 15:39:18 10° SE
ISS -0.9 15:35:03 18° ENE 15:35:03 18° ENE 15:36:23 10° E
Lacrosse 4 Rocket 2.5 15:36:41 46° ENE 15:36:41 46° ENE 15:40:03 10° NE
Meteor 2-20 Rocket 4.5 15:32:54 29° N 15:36:15 81° E 15:42:31 10° SSE
ATLAS 3B R/B 4.0 15:38:42 26° SSW 15:39:10 26° SSW 15:45:01 10° SE
CENTAUR R/B 4.0 15:41:54 21° S 15:43:46 24° SSE 15:48:19 10° ESE
MOS 1 Rocket 4.1 15:40:28 10° SSE 15:44:44 47° E 15:49:05 10° N
Cosmos 1727 Rocket 4.0 15:40:05 10° N 15:46:29 89° E 15:52:58 10° S
H-2A R/B 4.3 15:47:25 10° ENE 15:51:14 22° ESE 15:55:08 10° S
ATLAS 5 CENTAUR R/B 2.8 15:48:27 35° NNW 15:51:52 78° NE 15:58:34 10° SE
Cosmos 2333 Rocket 4.3 15:55:27 14° SSW 15:55:27 14° SSW 15:57:12 10° S
Cosmos 1939 Rocket 4.2 15:52:09 10° NE 15:55:49 37° ESE 15:58:11 19° SSE
Cosmos 1656 Rocket 4.5 15:53:27 22° S 15:56:45 47° SE 16:02:08 10° NE
Cosmos 1932 4.5 15:56:22 59° WNW 15:56:48 60° WNW 16:03:09 10° NNE
BREEZE-M DEB (TANK) 3.7 15:59:57 27° NE 15:59:57 27° NE 16:01:48 10° ENE
Cosmos 1777 Rocket 4.1 16:00:31 59° NNW 16:00:31 59° NNW 16:05:04 10° N
Cosmos 1025 Rocket 4.2 16:03:23 32° S 16:03:23 32° S 16:05:52 10° S
Meteor 2-11 Rocket 4.4 15:55:50 10° S 16:02:06 87° ESE 16:08:18 10° N
Cosmos 1459 Rocket 3.9 15:59:34 10° S 16:05:53 89° E 16:12:02 10° N
Genesis I 4.0 16:05:57 43° SE 16:06:06 43° SE 16:09:41 10° ENE
Cosmos 2297 4.0 16:07:27 45° NW 16:07:27 45° NW 16:12:06 10° N
Cosmos 2173 Rocket 3.9 16:03:14 10° S 16:09:35 85° W 16:15:56 10° N
BREEZE-M TANK 3.8 16:08:48 45° WNW 16:10:34 67° N 16:27:05 10° ENE
Meteor 1-24 Rocket 4.2 16:06:58 10° N 16:12:18 57° E 16:17:36 10° SSE
Cosmos 2369 Rocket 2.1 16:11:51 31° SSW 16:14:45 89° ESE 16:20:27 10° NNE
CZ-4B R/B 4.0 16:10:23 10° NE 16:15:44 52° ESE 16:21:15 10° S
BREEZE-M DEB (TANK) 2.9 16:16:43 54° E 16:16:43 54° E 16:19:57 10° E
SJ 16-02 1.2 16:18:21 64° WSW 16:18:50 72° WNW 16:23:14 10° NNE
Meteor 2-5 Rocket 3.8 16:14:11 10° N 16:19:51 80° E 16:25:30 10° SSE
USA 81 4.0 16:16:38 10° SSW 16:21:55 59° W 16:27:07 10° NNW
USA 307 3.5 16:21:52 42° SSW 16:22:36 47° SSE 16:26:48 10° E
Cosmos 2016 Rocket 4.0 16:17:30 10° S 16:23:50 84° E 16:30:00 10° N
Cosmos 2237 Rocket 3.4 16:25:38 25° SSW 16:25:38 25° SSW 16:29:42 10° SSE
Cosmos 2123 Rocket 4.3 16:19:57 10° N 16:26:07 70° E 16:32:26 10° SSE
Cosmos 1346 Rocket 2.7 16:22:53 10° N 16:26:52 88° WSW 16:30:56 10° SSE
CRYOSAT 2 4.3 16:23:38 10° N 16:28:32 69° W 16:33:29 10° S
Cosmos 1455 3.8 16:26:33 10° S 16:30:14 35° ESE 16:33:51 10° NE
SL-14 R/B 4.4 16:31:57 30° SSW 16:31:57 30° SSW 16:34:23 10° S
Okean O Rocket 2.5 16:26:06 10° NE 16:30:23 50° ESE 16:34:43 10° S
Cosmos 1603 4.5 16:26:00 10° N 16:31:34 54° ENE 16:37:14 10° SE
CORIOLIS 4.1 16:26:21 10° NNE 16:31:49 83° WNW 16:37:20 10° SSW
Cosmos 1943 Rocket 2.7 16:32:36 36° W 16:33:01 36° WNW 16:38:05 10° N
NOAA 6 4.0 16:28:44 10° N 16:33:51 60° WNW 16:39:04 10° SSW
Cosmos 1184 Rocket 3.6 16:31:09 10° N 16:34:22 53° E 16:37:38 10° SSE
PAYLOAD B 4.1 16:30:01 10° NNE 16:35:33 83° WNW 16:41:11 10° SSW
USA 234 3.3 16:30:27 10° SE 16:36:58 64° SSW 16:40:44 27° W
USA 305 3.4 16:37:38 35° SW 16:39:10 54° SSE 16:43:28 10° E
USA 308 3.4 16:38:05 35° SW 16:39:35 52° SSE 16:43:51 10° E
NOAA 12 4.2 16:34:50 10° N 16:39:57 50° W 16:45:08 10° SSW
FengYun 1-2 T 4.2 16:34:54 10° N 16:40:26 65° WNW 16:46:06 10° SSW
Cosmos 389 Rocket 4.1 16:44:31 21° NNW 16:44:31 21° NNW 16:45:54 10° NNW
PSLV R/B 4.0 16:38:58 10° N 16:42:52 52° W 16:44:46 28° SW
USA 290 4.4 16:41:01 10° NNE 16:43:58 30° ENE 16:46:57 10° SE
Cosmos 1536 Rocket 3.7 16:40:31 10° NNW 16:44:56 53° WSW 16:49:26 10° S
CZ-2C R/B 3.2 16:42:36 10° N 16:48:01 66° W 16:53:45 10° SSW
H-2A R/B 3.3 16:43:45 10° NNE 16:48:07 58° ESE 16:52:38 10° S
Meteor 2-10 Rocket 3.6 16:42:30 10° SSW 16:48:09 70° W 16:53:29 10° N
Cosmos 1802 Rocket 4.0 16:42:33 10° SSW 16:48:37 56° W 16:54:39 10° NNW
SL-16 R/B 2.7 16:46:25 27° W 16:48:43 38° SW 16:54:06 10° SSE
Cosmos 2061 Rocket 4.0 16:42:27 10° SSW 16:48:55 72° W 16:55:19 10° N
Cosmos 1898 Rocket 3.7 16:46:24 10° SSW 16:51:51 76° ESE 16:57:13 10° NNE
NOSS 3-2 (A) 4.1 16:46:26 14° SW 16:52:08 52° SE 16:57:47 10° ENE
Cosmos 2100 Rocket 4.4 16:49:01 10° SSW 16:54:54 39° W 17:00:46 10° NNW
Landsat 5 3.5 16:51:10 10° SSE 16:55:06 73° ENE 16:59:04 10° N
Spot 2 4.1 16:51:53 10° NNE 16:56:14 78° ESE 17:00:27 10° SSW
Cosmos 2084 Rocket 3.6 16:55:55 10° NW 17:00:45 81° SW 17:05:32 10° SE
USA 229 DEB 4.3 16:56:02 20° W 17:00:55 44° SSW 17:07:44 10° SE
USA 229 4.3 16:56:05 20° W 17:01:00 44° SSW 17:07:50 10° SE
COSMO-SKYMED 1 3.2 16:56:50 10° SSE 17:01:14 60° E 17:05:34 10° N
USA 306 3.1 17:00:53 24° SW 17:03:21 65° SSE 17:07:38 10° ENE
Cosmos 2058 Rocket 3.9 16:59:37 10° S 17:04:10 55° ESE 17:08:37 10° NNE
Cosmos 1725 Rocket 4.0 16:58:22 10° SSW 17:04:34 59° W 17:10:39 10° N
Cosmos 1300 4.5 17:06:55 16° WNW 17:06:55 16° WNW 17:08:14 10° NW
SMAP 3.7 17:01:29 10° NNW 17:05:46 34° W 17:10:06 10° SSW
Cosmos 1763 Rocket 3.7 17:01:19 10° NNW 17:06:30 76° ENE 17:11:40 10° SSE
Cosmos 1726 Rocket 3.6 17:03:07 10° S 17:07:42 87° WNW 17:12:12 10° N
deb Chang Zheng 4 4.4 17:04:26 10° NNW 17:08:12 29° W 17:10:35 18° SW
ISS -3.8 17:08:03 22° WNW 17:10:09 87° SSW 17:13:37 10° ESE
Meteor 1-4 Rocket 3.0 17:08:29 10° S 17:12:11 63° ESE 17:15:45 10° NNE
Cosmos 2228 3.3 17:09:00 10° SSW 17:13:18 49° W 17:17:34 10° NNW
Lacrosse 4 Rocket 3.0 17:13:02 19° W 17:13:51 20° WNW 17:17:05 10° NNW
SL-24 DEB 4.3 17:14:47 10° N 17:19:31 90° N 17:24:21 10° S
NOSS 3-2 (C) 4.2 17:12:57 10° SW 17:19:34 49° SE 17:25:14 10° ENE
Okean-O 4.0 17:15:28 10° NE 17:19:38 40° ESE 17:23:53 10° S
USA 276 3.9 17:16:45 10° NW 17:19:39 32° NNE 17:22:35 10° E
CZ-4C R/B 3.7 17:12:46 10° NNW 17:20:47 56° ENE 17:27:39 10° SE
MOS 1 Rocket 4.3 17:19:22 10° SSW 17:22:44 22° WSW 17:26:08 10° WNW
CZ-2D R/B 3.7 17:21:18 10° N 17:24:57 41° W 17:28:40 10° SSW
Cosmos 2233 Rocket 4.0 17:20:08 10° SSW 17:26:17 61° W 17:32:20 10° N
Cosmos 1441 Rocket 3.2 17:22:17 10° NNW 17:26:17 68° WSW 17:30:19 10° S
Cosmos 1943 3.2 17:22:05 10° NW 17:27:43 64° WSW 17:33:24 10° SSE
Cosmos 482 Debris 4.4 17:24:19 15° WSW 17:28:23 64° NNW 17:31:35 10° NE
SJ-11-01 4.3 17:24:04 10° NNE 17:28:47 89° WNW 17:33:35 10° SSW
ARGOS 3.3 17:24:25 10° NNE 17:29:50 83° ESE 17:35:19 10° SSW
H-2A R/B 2.0 17:25:07 10° N 17:30:09 66° WNW 17:35:25 10° SSW
Cosmos 1939 Rocket 4.1 17:27:48 10° NW 17:30:52 21° W 17:33:57 10° SW
ATLAS 3B R/B 4.1 17:26:21 10° SW 17:32:18 26° SSE 17:38:00 10° ESE
Meteor 2-1 Rocket 4.2 17:26:52 10° SSW 17:32:36 85° W 17:38:10 10° N
CZ-4 R/B 1.4 17:29:58 10° NNE 17:33:53 82° ESE 17:37:50 10° SSW
CENTAUR R/B 2.5 17:29:37 10° SW 17:35:34 64° SE 17:40:46 10° NE
ATLAS 5 CENTAUR R/B 3.2 17:30:37 10° W 17:37:15 38° SSW 17:43:11 10° SE
Cosmos 1937 Rocket 3.6 17:32:03 10° SSW 17:37:17 65° WNW 17:42:31 10° N
Cosmos 1606 Rocket 4.2 17:33:26 10° SSW 17:37:36 35° W 17:41:42 10° NNW
ERBS 4.0 17:36:07 11° SW 17:38:51 23° SSE 17:41:40 10° ESE
EXPRESS MD2 3.9 17:35:42 10° W 17:39:19 86° S 17:46:39 10° E
CZ-4C R/B 3.6 17:36:45 10° S 17:40:05 36° WSW 17:43:26 10° NW
Cosmos 1656 Rocket 4.4 17:35:17 10° SW 17:40:09 32° WNW 17:45:02 10° NNW
USA 186 4.2 17:39:50 10° ENE 17:41:35 17° ESE 17:43:27 10° SSE
Cosmos 540 Rocket 3.6 17:37:39 10° NNW 17:42:51 87° ENE 17:48:05 10° SSE
Genesis I 4.5 17:40:49 12° WSW 17:43:25 22° WNW 17:46:21 10° N
Resurs 01 Rocket 4.5 17:42:40 10° ESE 17:43:54 11° SE 17:45:09 10° SE
CZ-2C R/B 3.0 17:39:49 10° SSE 17:45:28 81° ENE 17:51:08 10° NNW
SME Rocket 3.5 17:41:54 10° S 17:46:04 61° WSW 17:51:45 10° NNW
Cosmos 44 3.4 17:43:31 10° NNW 17:47:48 69° NE 17:52:04 10° SE
SKYMED 2 3.9 17:44:58 10° S 17:49:14 47° WSW 17:53:27 10° NW
GEOS 3 Rocket 4.5 17:44:02 10° SE 17:49:15 58° NE 17:54:29 10° NNW
YAOGAN 1 2.6 17:45:09 10° N 17:49:32 77° WNW 17:53:58 10° SSW
H-2A R/B 2.0 17:45:39 10° SSE 17:50:01 75° WSW 17:54:14 10° NNW
USA 238 DEB 3.8 17:44:53 10° SW 17:51:55 80° SE 17:58:32 10° NE
USA 238 3.8 17:45:00 10° SW 17:52:02 80° SE 17:58:39 10° NE
Cosmos 468 Rocket 4.2 17:47:42 10° NW 17:52:42 48° WSW 17:57:45 10° SSE
CZ-4B R/B 4.2 17:51:53 10° NNW 17:56:34 28° W 18:01:23 10° SW
Cosmos 2369 Rocket 3.7 17:54:38 10° WSW 17:57:58 16° W 18:01:18 10° NW
Cosmos 1513 Rocket 4.5 17:53:52 10° S 18:00:07 81° W 18:06:14 10° N
Cosmos 372 Rocket 4.0 17:55:42 10° SSW 18:00:51 68° WNW 18:05:59 10° N
